FW9747 Weather Reports


time (UTC)temp
C
wind
direction
speed
KPH
gust
KPH
rain 1hr
cm
rain 24hr
cm
rain mn
cm
humidity
%
barometer
mb
20260502190054 13 0.0 0.0 0.00 0.00 0.00 49 1009.1
20260502184558 13 0.0 0.0 0.00 0.00 0.00 53 1008.9
20260502183058 12 0.0 0.0 0.00 0.00 0.00 56 1008.9
20260502181551 12 0.0 0.0 0.00 0.00 0.00 54 1008.9
20260502163056 15 0.0 0.0 0.00 0.00 0.00 37 1008.2
20260502161553 15 0.0 0.0 0.00 0.00 0.00 39 1008.0
20260502151603 11 0.0 0.0 0.00 0.00 0.00 59 1007.9
20260502123049 3 0.0 0.0 0.00 0.00 0.00 80 1008.6
20260502121548 3 0.0 0.0 0.00 0.00 0.00 79 1008.8
20260502114605 3 0.0 0.0 0.00 0.00 0.00 79 1008.9
20260502113051 2 0.0 0.0 0.00 0.00 0.00 80 1009.2
20260502111554 1 0.0 0.0 0.00 0.00 0.00 79 1009.4
20260502110053 2 0.0 0.0 0.00 0.00 0.00 78 1009.7
20260502104553 1 0.0 0.0 0.00 0.00 0.00 79 1009.8
20260502103050 1 0.0 0.0 0.00 0.00 0.00 79 1010.3
20260502101616 1 0.0 0.0 0.00 0.00 0.00 79 1010.3
20260502090107 1 0.0 0.0 0.00 0.00 0.00 78 1011.7
20260502080106 2 0.0 0.0 0.00 0.00 0.00 75 1012.2
20260502070116 3 0.0 0.0 0.00 0.00 0.00 71 1013.0
20260502064558 4 0.0 0.0 0.00 0.00 0.00 70 1013.3
20260502063057 4 0.0 0.0 0.00 0.00 0.00 70 1013.4
20260502061554 5 0.0 0.0 0.00 0.00 0.00 68 1013.6
20260502060052 5 0.0 0.0 0.00 0.00 0.00 68 1013.8
20260502054556 5 0.0 0.0 0.00 0.00 0.00 68 1014.0
20260502053053 5 0.0 0.0 0.00 0.00 0.00 69 1014.1
20260502051610 5 0.0 0.0 0.00 0.00 0.00 68 1014.4
20260502050053 5 0.0 0.0 0.00 0.00 0.00 68 1014.7
20260502044552 5 0.0 0.0 0.00 0.00 0.00 68 1015.0
20260502043057 5 0.0 0.0 0.00 0.00 0.00 67 1015.1
20260502041555 5 0.0 0.0 0.00 0.00 0.00 66 1015.3
20260502034555 5 0.0 0.0 0.00 0.00 0.00 64 1015.5
20260502033108 6 0.0 0.0 0.00 0.00 0.00 63 1015.7
20260502031551 6 0.0 0.0 0.00 0.00 0.00 61 1015.6
20260502030100 7 0.0 0.0 0.00 0.00 0.00 59 1015.6
20260502024556 7 0.0 0.0 0.00 0.00 0.00 57 1015.5
20260502023114 8 0.0 0.0 0.00 0.00 0.00 54 1015.5
20260502021552 9 0.0 0.0 0.00 0.00 0.00 50 1015.5
20260502020103 10 0.0 0.0 0.00 0.00 0.00 48 1015.4
20260502014553 11 0.0 0.0 0.00 0.00 0.00 47 1015.5
20260502013103 12 0.0 0.0 0.00 0.00 0.00 43 1015.5
20260502011549 12 0.0 0.0 0.00 0.00 0.00 40 1015.5
20260502010053 13 0.0 0.0 0.00 0.00 0.00 38 1015.4
20260502004605 14 0.0 0.0 0.00 0.00 0.00 36 1015.5
20260502003055 15 0.0 0.0 0.00 0.00 0.00 35 1015.5
20260502001605 15 0.0 0.0 0.00 0.00 0.00 33 1015.7
20260502000101 15 0.0 0.0 0.00 0.00 0.00 33 1015.7
20260501234555 15 0.0 0.0 0.00 0.00 0.00 32 1015.8
20260501233058 15 0.0 0.0 0.00 0.00 0.00 33 1016.0
20260501231554 15 0.0 0.0 0.00 0.00 0.00 32 1016.2
20260501230057 15 0.0 0.0 0.00 0.00 0.00 32 1016.3
20260501224551 15 0.0 0.0 0.00 0.00 0.00 30 1016.5
20260501223050 15 0.0 0.0 0.00 0.00 0.00 31 1016.7
20260501221552 15 0.0 0.0 0.00 0.00 0.00 29 1016.7
20260501220134 15 0.0 0.0 0.00 0.00 0.00 29 1017.2
20260501214549 15 0.0 0.0 0.00 0.00 0.00 29 1017.3
20260501213100 15 0.0 0.0 0.00 0.00 0.00 31 1017.6
20260501211556 15 0.0 0.0 0.00 0.00 0.00 29 1017.7
20260501210105 15 0.0 0.0 0.00 0.00 0.00 30 1017.9
20260501204558 15 0.0 0.0 0.00 0.00 0.00 31 1018.1
20260501203051 15 0.0 0.0 0.00 0.00 0.00 33 1018.2
20260501201556 14 0.0 0.0 0.00 0.00 0.00 31 1018.2
20260501200056 13 0.0 0.0 0.00 0.00 0.00 31 1018.4
20260501194552 13 0.0 0.0 0.00 0.00 0.00 33 1018.4
20260501193053 13 0.0 0.0 0.00 0.00 0.00 33 1018.5
20260501191600 13 0.0 0.0 0.00 0.00 0.00 33 1018.8